DK2OO-6 Weather Reports


time (UTC)temp
C
wind
direction
speed
KPH
gust
KPH
rain 1hr
cm
rain 24hr
cm
rain mn
cm
humidity
%
barometer
mb
20260507032033 7 180 0.0 0.0 0.00 2.64 0.00 82 1004.7
20260507002858 8 180 0.0 0.0 0.00 2.64 0.00 81 1004.1
20260506223819 9 180 0.0 0.0 0.00 2.64 0.00 80 1003.8
20260506205746 10 180 3.2 9.7 0.00 2.64 0.00 80 1003.3
20260506200720 11 180 0.0 0.0 0.00 2.64 0.00 79 1002.9
20260506184647 11 270 0.0 0.0 0.00 2.64 0.00 78 1002.2
20260506183647 11 270 0.0 0.0 17.65 2.64 0.00 78 1001.9
20260506162538 14 292 0.0 0.0 0.00 13.21 0.00 66 999.6
20260506155524 16 292 0.0 0.0 0.00 13.21 0.00 64 999.7
20260506121320 20 157 0.0 0.0 0.00 13.21 0.00 52 999.6
20260506115319 20 157 0.0 0.0 0.00 2.64 0.00 53 999.7
20260506114309 20 157 0.0 0.0 0.00 2.64 0.00 53 999.6
20260506103235 19 225 0.0 0.0 0.00 2.64 0.00 57 1000.5
20260506100229 18 112 0.0 0.0 0.00 2.64 0.00 62 1000.7
20260506094223 17 180 0.0 1.6 0.00 2.64 0.00 66 1000.6
20260506091210 15 202 0.0 0.0 2.64 2.64 0.00 69 1000.7
20260506085157 15 202 0.0 0.0 2.64 2.64 0.00 70 1000.5
20260506082150 14 202 0.0 0.0 2.64 2.64 0.00 73 1000.8
20260506073123 13 202 0.0 0.0 0.00 13.21 0.00 77 1001.1
20260506072123 13 202 0.0 0.0 0.00 13.21 0.00 78 1000.9
20260506062107 10 225 0.0 0.0 0.00 13.21 0.00 82 1001.0